Temperature
21 20 20 19 19 19 18 18 18 18 17 17 17 17 16 16 16 16 16 16 16 15 15 15 15 15 15 15 15 15 15 14 14 15 15 15 15 15 14 14 14 14 14
21 20 20 19 19 19 18 18 18 17 17 17 17 16 16 16 16 16 16 16 16 15 15 15 15 15 15 14 14 14 14 14 14 14 14 14 14 14 14 14 14 14 14
21 20 20 19 19 18 18 18 17 17 17 17 17 16 16 16 16 16 16 15 15 15 15 15 15 15 14 14 14 14 14 14 14 14 14 14 14 14 14 14 13 13 13
21 20 19 19 18 18 18 18 17 17 17 17 16 16 16 16 16 16 15 15 15 15 15 14 14 14 14 14 14 14 14 14 14 14 14 14 14 13 13 13 13 13 13
21 20 19 19 18 18 18 17 17 17 17 16 16 16 16 16 15 15 15 15 15 15 15 14 14 14 14 14 14 14 14 14 14 14 14 14 14 14 13 13 13 13 13
21 20 19 18 18 17 17 17 17 17 16 16 16 16 15 15 15 15 15 15 15 14 14 14 14 14 14 14 14 14 14 14 14 13 13 13 13 13 13 13 12 12 12
21 20 19 18 18 17 17 17 16 16 16 16 15 15 15 15 15 15 14 14 14 14 14 14 14 14 14 14 14 13 13 13 13 13 13 13 13 13 13 13 12 12 12
20 19 19 18 17 17 16 16 16 16 16 15 15 15 15 15 15 14 14 14 14 14 14 14 14 14 14 13 13 13 13 13 13 13 13 13 13 13 13 13 12 12 12
20 19 18 18 17 16 16 16 16 16 15 15 15 15 15 15 14 14 14 14 14 14 14 14 14 14 13 13 13 13 13 13 13 13 13 13 13 12 12 12 12 12 11
20 19 18 17 17 16 16 16 15 15 15 15 15 15 15 14 14 14 14 14 14 14 14 14 14 14 13 13 13 13 13 13 13 12 12 12 12 12 12 12 12 12 12
20 19 18 17 17 16 16 16 15 15 15 15 14 14 14 14 14 14 14 14 14 14 14 14 14 13 13 13 13 13 12 12 12 12 12 12 12 12 12 12 12 11 11
19 19 18 17 16 16 16 15 15 15 14 14 14 14 14 14 14 14 14 14 14 14 13 13 13 13 13 13 13 12 12 12 12 12 12 12 12 12 12 12 11 11 11
19 18 17 17 16 16 15 15 15 15 14 14 14 14 14 13 13 13 13 13 13 13 13 13 13 13 13 13 12 12 12 12 12 12 12 12 12 12 12 11 11 11 11
18 18 17 16 16 16 15 15 14 14 14 14 13 13 13 13 13 13 13 13 13 13 13 13 13 12 12 12 12 12 12 12 12 12 12 12 12 12 11 11 11 11 11
18 17 17 16 16 15 15 15 14 14 14 13 13 13 13 13 13 13 13 12 12 12 12 12 12 12 12 12 12 12 12 12 12 12 12 11 11 11 11 11 11 11 10
18 17 16 16 16 15 15 14 14 13 13 13 13 13 13 12 12 12 12 12 12 12 12 12 12 11 11 11 11 11 12 12 11 11 11 11 11 11 11 11 10 10 10
17 16 16 16 15 15 15 14 13 13 13 13 13 12 12 12 12 12 12 12 11 11 12 11 11 11 11 11 11 11 11 11 11 11 11 11 11 11 11 10 10 10 10
16 16 15 15 15 15 14 14 13 13 13 12 12 12 12 12 12 11 11 11 11 11 11 11 11 11 11 11 11 11 11 11 10 10 10 10 10 10 10 10 10 10 10
16 15 15 15 14 14 14 14 13 13 12 12 12 12 12 11 11 11 11 11 11 11 11 10 10 10 10 10 10 10 10 10 10 10 10 10 10 10 10 10 10 10 10
15 15 15 14 14 14 13 13 13 12 12 12 12 11 11 11 11 11 11 10 10 10 10 10 10 10 10 10 10 10 10 10 10 10 9 9 9 9 9 9 9 9 9
15 14 14 14 13 13 13 13 12 12 12 11 11 11 11 11 10 10 10 10 10 10 10 10 10 10 10 10 9 9 9 9 9 9 9 9 9 9 9 9 9 9 9
14 14 14 13 13 13 13 12 12 12 11 11 11 11 11 10 10 10 10 10 10 10 10 10 9 9 9 9 9 9 9 9 9 9 9 9 8 8 8 8 8 8 8
14 13 13 13 13 12 12 12 12 11 11 11 11 11 10 10 10 10 10 9 9 9 9 9 9 9 9 9 9 9 9 9 9 9 8 8 8 8 8 8 8 8 8
13 13 13 12 12 12 12 11 11 11 11 11 10 10 10 10 10 9 9 9 9 9 9 9 9 9 9 9 9 9 9 8 8 8 8 8 8 8 8 8 8 8 7
13 12 12 12 11 11 11 11 11 11 10 10 10 10 10 10 9 9 9 9 9 9 9 9 9 8 8 8 8 8 8 8 8 8 8 7 7 7 7 7 7 7 7
12 12 12 11 11 11 11 11 10 10 10 10 10 9 9 9 9 9 9 8 8 8 8 8 8 8 8 8 8 8 8 8 8 7 7 7 7 7 7 7 7 7 7
Wind_Speed
7 7 6 5 4 4 5 4 4 4 3 2 2 2 2 2 1 2 3 3 4 5 4 3 3 2 2 2 3 2 2 2 2 2 2 2 3 3 2 3 3 4 5
8 7 6 6 4 3 4 4 4 4 4 2 1 2 2 1 1 2 2 2 3 4 3 3 2 2 2 3 3 2 2 1 1 1 1 1 2 3 2 2 2 3 4
8 7 6 6 4 4 3 3 3 4 4 3 2 2 2 1 1 1 1 1 3 3 3 3 2 2 2 2 1 1 2 1 2 2 1 1 1 1 1 2 3 2 2
6 6 6 5 4 3 2 2 3 2 3 3 3 2 1 1 1 2 1 1 2 2 3 3 2 1 1 2 1 1 1 0 1 1 1 1 1 1 0 1 2 2 2
6 7 7 6 5 3 2 1 2 2 2 2 3 2 1 1 1 2 2 1 0 1 2 3 2 1 1 1 1 1 1 0 0 1 1 1 0 0 1 0 1 1 1
7 7 6 6 5 3 2 1 2 2 1 1 3 2 2 1 2 1 2 1 1 1 1 2 1 1 0 0 1 1 0 0 0 0 0 0 0 0 1 1 0 0 1
6 7 6 5 4 4 2 2 1 1 1 1 1 2 2 2 2 1 1 1 1 1 1 1 1 1 1 1 1 0 0 1 0 0 1 0 0 0 1 1 0 0 1
5 7 6 6 5 4 3 1 1 1 2 1 0 1 1 2 1 1 1 1 1 1 1 2 2 1 1 1 1 0 1 0 0 1 1 1 0 0 1 1 1 0 1
5 6 6 6 5 4 3 2 2 2 2 1 1 1 1 1 1 1 1 1 1 1 1 2 2 1 2 2 1 1 1 0 0 1 1 1 1 0 1 1 2 2 1
5 6 6 5 5 4 3 2 2 2 2 2 1 1 1 2 1 1 1 0 0 1 1 1 1 2 2 2 1 0 1 0 0 0 1 0 1 0 1 1 1 1 1
5 5 6 5 5 4 3 3 2 2 2 1 1 1 1 2 2 1 1 1 0 1 0 1 1 2 2 2 1 1 1 1 1 1 1 1 0 1 0 0 0 0 1
5 5 6 5 4 4 3 2 2 2 2 1 0 1 1 2 1 1 0 1 1 0 1 0 1 1 2 2 2 2 2 2 2 2 1 1 1 1 0 1 1 0 1
5 5 5 5 4 4 3 2 2 2 2 2 1 1 2 2 1 1 1 1 0 1 0 0 0 1 2 1 1 2 1 2 2 3 2 2 2 1 1 1 1 1 1
5 5 4 4 3 3 3 2 2 2 2 2 1 1 2 1 1 2 2 2 1 1 1 1 1 0 0 1 0 1 1 2 2 2 2 2 3 3 3 2 2 1 1
4 4 4 4 4 3 3 2 2 2 2 2 2 1 1 2 2 2 2 2 2 2 1 1 1 1 1 0 0 1 2 2 2 2 1 1 1 2 1 2 2 2 2
3 3 3 3 3 3 2 2 2 2 2 2 1 1 2 2 1 1 1 1 1 1 1 1 1 1 1 2 2 1 2 2 2 2 1 1 1 1 1 1 1 2 3
3 3 1 1 1 2 3 3 2 2 2 2 2 2 2 2 2 1 1 1 1 1 1 1 1 0 0 1 1 2 2 2 2 1 1 2 1 1 1 1 1 1 2
2 1 1 1 1 1 2 3 2 2 2 2 2 1 1 1 2 2 2 2 1 1 1 1 1 1 1 1 1 3 2 2 2 1 1 1 1 0 1 1 2 2 2
2 1 1 1 0 1 2 2 2 2 2 2 2 1 1 1 1 2 2 2 1 2 2 2 2 1 0 1 1 1 2 2 1 1 1 1 0 1 1 1 1 1 2
2 1 1 1 1 1 1 2 2 2 2 2 2 2 2 2 1 2 1 1 1 2 2 2 2 1 0 1 1 1 1 2 2 1 0 1 1 2 1 1 2 2 3
2 1 1 1 1 1 1 1 1 1 1 2 2 2 1 2 1 1 1 1 1 1 2 2 1 1 1 1 0 1 1 1 2 2 1 1 2 2 2 2 2 3 2
1 1 1 1 1 0 1 1 1 1 1 1 2 1 1 1 1 1 1 1 1 2 2 1 1 0 1 1 1 1 2 2 2 2 2 1 2 2 3 3 3 3 2
0 0 0 0 0 0 1 1 1 1 1 2 2 2 1 1 1 1 1 1 1 1 1 1 1 1 0 0 0 1 3 3 2 2 3 3 3 3 2 3 4 3 1
0 0 0 0 1 1 1 1 1 1 1 2 2 2 1 1 1 1 1 0 0 1 1 1 1 1 1 0 0 1 2 3 3 3 3 4 3 2 3 2 2 2 2
0 1 1 1 2 2 1 1 1 1 2 2 2 2 1 1 0 0 0 0 0 1 2 2 1 1 2 1 1 1 1 2 2 2 2 2 1 1 1 1 2 2 2
1 1 1 1 2 1 1 1 1 1 2 2 2 1 1 1 1 1 1 2 1 1 2 2 2 2 2 3 3 3 3 3 3 2 2 2 2 2 2 2 2 3 3
Wind_Direction
153 141 142 135 130 124 117 118 114 111 110 100 101 108 106 97 90 87 65 52 55 65 68 66 73 71 75 68 63 59 32 25 54 58 41 37 61 70 78 64 69 71 67
142 145 142 127 124 119 116 125 127 126 129 124 122 137 130 126 107 79 74 56 59 72 82 86 86 75 73 69 69 72 50 354 10 57 84 53 18 5 52 76 72 64 68
148 148 139 131 135 128 131 136 136 142 136 124 101 90 90 112 114 104 94 63 69 74 70 75 84 110 103 97 99 107 87 356 326 18 55 98 150 321 7 59 67 67 63
138 140 134 128 126 115 115 123 130 128 124 128 125 134 158 178 173 144 127 101 73 85 84 76 76 83 109 122 176 123 116 117 306 328 343 43 111 134 355 343 38 65 70
133 135 138 133 127 112 102 102 121 116 119 140 144 142 142 156 110 108 121 126 135 79 96 90 72 60 68 190 146 95 107 116 59 337 326 337 356 106 131 187 346 11 27
137 135 133 125 119 117 113 88 94 95 125 148 140 147 161 151 130 138 156 173 153 157 146 117 110 97 111 344 81 80 108 36 300 329 320 33 324 276 122 171 193 18 314
135 136 130 128 126 127 127 123 109 104 95 92 144 161 157 154 161 167 154 146 147 152 169 132 139 154 162 150 116 348 252 235 228 304 300 249 231 200 104 124 176 319 292
136 135 134 133 132 129 130 121 102 98 104 103 68 108 149 144 140 157 142 150 163 176 168 157 156 164 131 112 125 163 279 326 44 313 310 336 314 51 100 128 128 72 317
140 136 135 136 138 141 140 137 119 125 119 109 87 84 88 110 124 130 112 156 190 166 136 144 148 154 125 112 111 131 291 312 28 286 284 274 272 182 150 145 151 155 228
142 138 137 142 141 133 129 120 107 99 110 110 143 157 138 125 144 149 142 78 41 82 123 120 135 137 122 116 135 174 278 261 256 283 337 314 272 147 131 159 209 177 163
140 140 139 140 130 124 128 131 124 113 110 120 153 168 144 134 131 142 149 128 67 43 266 143 133 145 151 154 166 182 221 220 254 247 250 260 211 108 124 167 229 228 147
128 130 131 129 133 137 132 132 126 115 110 105 57 47 86 91 109 112 103 121 153 142 269 180 151 169 166 173 173 194 211 207 229 241 235 236 203 168 171 172 206 206 180
121 121 126 141 145 141 138 143 130 127 127 126 116 81 87 78 67 61 48 25 40 82 327 336 80 173 169 192 195 196 210 218 227 232 223 216 179 199 210 191 197 200 136
125 128 130 134 134 141 141 141 150 144 137 134 144 120 109 101 76 61 43 15 9 38 10 340 329 350 242 179 211 248 230 233 247 256 236 220 191 195 201 200 194 164 139
127 137 146 145 137 139 142 136 140 136 122 117 120 119 112 88 70 58 40 13 4 8 6 354 357 4 327 329 56 286 279 251 237 252 258 250 210 193 198 205 192 165 152
125 119 123 132 146 155 146 134 132 127 127 132 132 122 119 116 120 121 97 30 357 335 333 329 331 335 344 24 23 352 301 291 250 242 266 256 182 125 105 106 201 178 183
102 108 117 127 158 157 150 143 152 152 151 142 138 134 141 150 160 159 145 262 257 279 301 299 302 291 29 23 1 339 292 277 262 246 248 274 269 146 169 212 235 253 250
95 97 90 104 143 132 143 142 139 148 156 150 146 136 145 152 163 177 201 234 246 239 251 257 271 256 290 349 338 316 306 284 269 251 249 247 185 321 210 201 211 225 253
72 92 56 42 94 144 142 140 149 158 153 154 163 160 150 172 192 205 221 233 237 243 246 233 248 237 291 348 333 336 298 297 310 3 360 340 270 319 257 208 214 227 256
53 59 52 30 25 82 125 150 164 159 166 172 176 170 169 177 209 216 240 257 235 234 239 237 225 184 157 15 5 341 288 303 316 317 330 355 342 341 7 227 223 240 254
45 48 56 55 24 80 142 171 175 187 185 181 167 170 182 176 187 222 254 256 236 233 241 234 219 183 150 122 267 281 268 283 303 302 293 300 309 309 286 278 251 254 261
62 83 91 56 26 108 164 188 203 181 140 158 167 171 183 196 193 193 257 259 221 229 245 242 276 266 144 135 242 272 270 289 288 292 296 294 286 278 284 287 298 303 304
91 110 120 92 22 52 197 224 230 155 158 159 178 188 194 182 169 189 246 264 219 210 232 216 259 293 329 118 12 300 291 286 279 286 305 314 295 281 280 276 290 300 278
194 319 206 211 267 256 276 243 226 190 189 189 185 190 197 198 190 183 201 233 271 215 216 221 234 267 304 49 35 302 297 295 288 297 305 308 297 275 276 296 286 259 246
245 223 219 224 250 250 243 220 196 187 207 202 193 194 189 166 151 5 304 229 243 214 215 223 225 239 259 265 273 259 274 276 271 299 301 302 317 300 290 278 267 259 256
278 283 268 252 259 250 218 187 194 204 215 223 209 190 182 180 181 166 9 358 281 228 215 211 221 265 259 273 279 275 279 280 265 271 260 256 249 248 251 253 256 254 255
Height
1517 1519 1521 1522 1524 1525 1526 1527 1528 1529 1529 1530 1531 1531 1531 1532 1532 1533 1533 1533 1533 1533 1534 1534 1534 1534 1534 1534 1533 1533 1533 1534 1534 1534 1534 1535 1536 1536 1536 1536 1536 1536 1536
1515 1518 1520 1521 1523 1524 1526 1527 1528 1528 1529 1529 1530 1531 1531 1531 1532 1532 1532 1533 1533 1533 1533 1533 1533 1533 1533 1533 1533 1533 1533 1534 1534 1534 1534 1535 1537 1536 1536 1536 1536 1536 1536
1514 1516 1518 1520 1521 1523 1524 1525 1527 1527 1528 1528 1529 1530 1530 1530 1530 1531 1531 1532 1532 1532 1532 1533 1533 1533 1533 1533 1533 1533 1533 1534 1534 1534 1535 1535 1536 1536 1537 1536 1536 1536 1536
1512 1515 1517 1518 1520 1522 1523 1524 1525 1526 1527 1527 1527 1528 1528 1529 1529 1530 1530 1531 1531 1531 1532 1532 1532 1532 1532 1532 1533 1533 1533 1533 1534 1534 1534 1535 1535 1536 1536 1537 1536 1536 1535
1511 1514 1515 1517 1519 1520 1522 1523 1524 1525 1525 1526 1526 1526 1527 1527 1528 1528 1529 1529 1530 1530 1530 1531 1531 1531 1531 1532 1532 1532 1532 1533 1533 1533 1534 1534 1535 1535 1535 1535 1535 1535 1535
1510 1513 1515 1516 1518 1519 1521 1522 1522 1523 1523 1524 1524 1524 1525 1525 1526 1526 1527 1528 1528 1529 1529 1529 1529 1530 1530 1530 1531 1531 1531 1532 1532 1533 1533 1533 1533 1533 1534 1533 1533 1534 1534
1509 1512 1513 1515 1517 1518 1519 1520 1521 1521 1522 1522 1522 1523 1523 1523 1524 1525 1525 1526 1526 1527 1527 1528 1528 1528 1529 1529 1529 1530 1530 1531 1531 1532 1532 1532 1532 1533 1533 1533 1532 1533 1533
1508 1510 1512 1514 1515 1517 1518 1518 1519 1519 1520 1520 1520 1521 1521 1522 1522 1523 1524 1524 1525 1525 1526 1526 1526 1527 1527 1528 1528 1528 1529 1529 1530 1530 1531 1531 1531 1531 1531 1532 1531 1531 1532
1507 1509 1511 1513 1514 1516 1516 1517 1517 1518 1518 1518 1519 1519 1520 1520 1521 1521 1522 1523 1523 1524 1524 1525 1525 1525 1526 1526 1526 1527 1527 1528 1528 1529 1529 1529 1529 1530 1530 1530 1530 1531 1530
1506 1508 1510 1512 1513 1514 1515 1516 1516 1516 1516 1517 1517 1518 1518 1519 1519 1520 1520 1521 1522 1522 1523 1523 1523 1524 1524 1524 1525 1525 1526 1526 1526 1527 1527 1528 1528 1528 1528 1529 1529 1529 1529
1505 1507 1508 1510 1512 1513 1514 1515 1515 1515 1515 1516 1516 1516 1517 1517 1518 1518 1519 1519 1520 1521 1521 1521 1522 1522 1522 1522 1523 1523 1524 1524 1525 1525 1526 1526 1526 1526 1526 1527 1527 1527 1527
1503 1505 1507 1509 1511 1512 1513 1513 1514 1514 1514 1514 1515 1515 1515 1516 1516 1517 1518 1518 1518 1519 1519 1519 1520 1520 1520 1521 1521 1521 1522 1522 1523 1523 1524 1524 1524 1524 1525 1524 1525 1525 1525
1502 1504 1506 1508 1509 1510 1511 1512 1512 1512 1512 1513 1513 1514 1514 1514 1515 1515 1516 1516 1517 1517 1517 1518 1518 1518 1518 1519 1519 1519 1520 1520 1520 1521 1522 1522 1522 1522 1522 1522 1523 1523 1523
1501 1503 1505 1506 1508 1509 1510 1510 1511 1511 1511 1511 1511 1512 1512 1513 1513 1513 1514 1514 1514 1515 1515 1515 1516 1516 1516 1516 1517 1517 1517 1517 1518 1519 1519 1520 1520 1520 1520 1520 1520 1521 1521
1501 1502 1504 1505 1506 1507 1508 1508 1509 1509 1509 1509 1510 1510 1511 1511 1511 1512 1512 1512 1512 1513 1513 1513 1514 1514 1514 1514 1514 1514 1515 1515 1515 1516 1516 1517 1517 1518 1518 1518 1518 1518 1518
1500 1502 1503 1504 1505 1505 1506 1506 1507 1507 1507 1508 1508 1508 1509 1509 1509 1509 1510 1510 1510 1511 1511 1511 1512 1512 1512 1512 1512 1512 1512 1512 1513 1513 1513 1514 1514 1514 1515 1515 1516 1516 1516
1500 1501 1502 1503 1503 1504 1504 1504 1505 1505 1506 1506 1506 1507 1507 1507 1507 1508 1508 1508 1508 1509 1509 1509 1509 1509 1510 1510 1510 1510 1510 1510 1510 1510 1511 1511 1511 1511 1512 1512 1513 1513 1514
1499 1500 1500 1501 1502 1502 1502 1503 1503 1503 1503 1504 1504 1504 1504 1505 1505 1505 1505 1506 1506 1506 1506 1507 1507 1507 1507 1508 1507 1508 1507 1507 1508 1508 1508 1508 1508 1508 1508 1508 1509 1510 1510
1498 1498 1499 1499 1500 1500 1500 1501 1501 1501 1501 1501 1502 1502 1502 1502 1502 1503 1503 1503 1504 1504 1504 1504 1504 1505 1505 1505 1505 1505 1505 1505 1505 1505 1505 1505 1505 1505 1506 1506 1506 1506 1507
1497 1497 1497 1498 1498 1498 1498 1498 1499 1499 1499 1499 1499 1500 1500 1500 1500 1500 1501 1501 1501 1501 1501 1501 1502 1502 1502 1503 1503 1503 1502 1502 1502 1502 1502 1503 1503 1503 1503 1503 1503 1503 1503
1495 1496 1496 1496 1496 1496 1496 1496 1496 1496 1496 1497 1497 1497 1497 1497 1498 1498 1498 1498 1498 1498 1499 1499 1499 1500 1500 1500 1500 1500 1500 1499 1499 1499 1499 1499 1499 1500 1500 1500 1500 1500 1500
1494 1494 1494 1494 1494 1494 1494 1494 1494 1494 1494 1494 1494 1494 1495 1495 1495 1495 1495 1495 1496 1496 1496 1496 1497 1497 1498 1498 1498 1498 1498 1497 1497 1496 1496 1496 1496 1496 1497 1497 1497 1497 1497
1492 1492 1492 1491 1492 1492 1492 1491 1491 1491 1491 1492 1492 1492 1493 1493 1493 1493 1493 1493 1493 1493 1493 1493 1493 1494 1495 1495 1495 1495 1495 1495 1494 1494 1493 1493 1493 1493 1493 1493 1493 1493 1493
1489 1489 1489 1489 1489 1489 1489 1489 1489 1489 1489 1489 1490 1490 1490 1490 1491 1491 1491 1490 1490 1490 1490 1490 1491 1491 1492 1492 1492 1492 1492 1491 1491 1490 1490 1490 1490 1490 1489 1489 1489 1490 1490
1487 1487 1486 1486 1486 1486 1486 1486 1486 1486 1486 1487 1487 1488 1488 1488 1488 1488 1488 1488 1487 1488 1488 1488 1488 1488 1488 1489 1489 1488 1488 1487 1487 1487 1486 1486 1486 1486 1486 1486 1486 1486 1486
1484 1484 1484 1484 1484 1484 1483 1483 1483 1483 1484 1484 1484 1484 1485 1485 1485 1485 1485 1485 1485 1485 1485 1486 1486 1485 1485 1485 1485 1485 1484 1484 1484 1483 1482 1482 1482 1482 1482 1482 1482 1482 1482